Lapse_Rate
6.4 7.0 6.5 5.5 5.7 4.8 4.2 3.7 3.9 4.0 3.5 3.3 3.7 4.1 4.4 4.5 4.5 4.7 4.8 4.6 4.4 4.6 4.7 4.7 4.5 4.4 4.3 5.1 5.9 7.2 9.8 9.7
4.9 4.9 4.8 6.6 6.2 4.7 4.2 3.8 3.7 3.3 3.1 3.6 3.9 4.4 4.5 4.5 4.9 4.6 4.8 4.5 4.3 4.1 4.1 4.1 3.8 3.8 4.6 5.5 6.4 7.6 9.7 9.8
4.3 4.2 3.9 6.5 7.7 5.1 5.0 4.6 4.0 4.1 3.7 3.8 5.5 6.4 7.0 8.0 4.9 4.5 4.2 4.3 3.9 3.8 4.0 4.3 5.0 4.6 4.9 6.1 7.6 9.4 9.7 9.7
3.9 3.5 3.6 4.5 5.5 6.0 6.6 6.4 7.4 6.5 5.3 6.2 7.2 7.8 9.4 8.0 4.9 3.9 3.9 3.7 3.7 4.2 5.2 6.3 8.2 9.4 8.3 8.0 8.8 8.6 9.6 9.7
3.9 4.3 3.6 4.2 4.9 4.6 6.6 6.7 5.9 6.3 6.2 7.3 6.7 7.1 6.9 8.7 6.2 6.8 6.7 6.4 7.2 7.6 8.1 9.1 7.7 8.4 7.6 7.5 7.8 9.0 9.4 9.6
4.8 5.0 5.6 4.9 5.9 6.4 6.6 7.9 5.9 6.0 6.4 6.8 7.1 8.0 7.5 8.2 8.6 7.6 6.8 7.8 7.3 7.5 7.2 6.5 6.7 6.7 6.5 6.2 6.3 7.9 8.4 9.6
5.6 6.2 6.2 6.8 6.4 6.3 6.6 5.8 5.7 6.5 6.6 7.1 7.7 8.2 7.7 7.2 6.8 6.9 7.6 7.3 8.3 7.8 7.5 7.8 6.9 6.5 6.6 6.6 6.7 6.6 7.1 9.1
4.9 4.8 6.0 6.0 7.2 7.6 6.7 6.0 6.1 7.0 7.5 8.0 7.0 7.2 6.2 5.4 5.8 7.2 7.6 9.0 8.4 8.3 8.6 8.0 7.8 7.3 6.5 6.5 6.6 7.3 7.2 7.8
5.7 6.4 7.2 7.3 7.7 7.4 6.8 7.3 8.2 9.2 8.2 6.0 5.2 4.7 5.0 5.3 6.8 7.5 7.9 7.1 6.7 7.1 7.0 7.3 8.2 8.0 7.4 7.0 8.2 7.4 8.2 7.6
8.4 9.3 8.0 7.4 7.6 7.3 7.8 8.2 8.0 7.1 7.2 6.6 5.8 5.7 5.9 6.5 7.3 7.5 7.0 7.4 7.5 7.6 8.0 8.1 8.2 9.4 9.3 9.7 8.7 8.1 7.7 8.3
9.4 9.1 8.2 7.9 7.7 8.6 9.6 9.1 7.3 6.8 6.1 6.8 6.0 5.8 6.0 7.0 7.3 6.8 7.1 7.3 7.5 7.7 7.8 8.8 9.3 9.7 9.8 9.6 8.3 9.7 9.2 9.7
9.6 8.8 7.8 7.6 7.5 7.2 7.7 8.3 6.4 5.6 6.1 6.5 5.4 6.2 6.0 6.6 7.1 7.1 7.7 7.7 7.6 7.8 8.0 8.3 9.2 9.1 9.7 9.8 9.9 9.9 9.8 9.8
9.4 8.9 7.7 7.6 7.5 8.5 8.5 6.7 5.9 5.7 5.6 5.6 5.3 4.2 5.5 7.0 7.7 7.1 7.2 8.2 7.9 7.6 8.1 8.1 9.5 9.1 9.6 9.5 9.7 10.0 9.9 10.0
9.4 9.3 8.2 8.0 9.6 9.6 9.5 8.5 5.8 6.3 7.1 5.1 5.4 5.3 6.0 6.8 7.2 7.3 7.5 7.9 7.3 7.6 8.3 9.4 9.6 9.5 9.2 9.2 8.6 9.1 9.7 10.0
9.5 9.6 9.6 9.3 9.7 9.9 9.6 9.1 6.8 6.7 6.8 5.2 5.2 4.7 5.9 7.2 7.1 7.5 7.1 7.9 8.3 7.9 8.2 8.9 9.3 9.6 9.3 9.1 8.4 8.1 9.0 9.7
9.6 9.7 9.6 9.4 9.3 9.4 7.5 8.8 8.7 8.5 6.8 6.2 5.8 5.4 6.8 7.2 7.2 7.2 7.5 8.2 8.0 8.1 8.2 8.8 8.9 9.3 9.6 9.8 9.6 9.4 8.6 8.4
9.4 9.5 9.4 9.3 8.1 7.9 8.6 9.1 9.1 6.1 3.3 3.9 6.0 6.2 6.8 7.4 7.2 7.4 7.8 8.1 7.8 7.4 7.9 8.1 9.5 9.4 9.5 9.5 9.5 9.5 9.4 9.0
8.8 8.9 9.1 8.2 6.9 7.0 7.3 8.6 6.2 5.1 3.6 3.9 7.0 7.9 7.2 6.9 7.7 7.6 7.5 6.9 7.1 7.7 6.2 5.8 7.5 9.1 9.7 9.6 9.4 9.2 9.1 9.1
7.8 8.1 8.9 8.8 6.7 6.5 5.8 6.1 5.7 5.9 5.4 5.8 9.3 8.9 7.3 7.2 7.4 7.3 7.0 7.0 4.8 3.1 3.8 8.7 8.7 9.6 9.6 9.6 9.8 9.6 9.8 9.6
5.9 6.2 7.3 7.2 5.9 5.4 5.6 6.6 6.5 6.3 6.1 7.5 9.0 8.5 9.0 8.9 7.5 7.8 7.3 2.6 2.4 3.1 6.6 8.9 9.7 9.3 9.5 9.6 9.8 9.9 10.0 9.9
Wind_Speed
20 22 25 22 21 18 22 25 25 27 28 26 24 22 20 18 17 16 16 18 19 18 19 19 18 15 14 15 11 8 8 9
16 16 14 18 22 20 17 20 21 24 30 29 27 24 22 19 18 17 16 19 20 19 21 21 17 15 14 12 8 3 9 7
18 19 19 15 19 22 18 16 18 22 27 31 27 21 21 17 18 17 19 19 21 21 20 20 19 16 14 7 2 9 6 7
12 20 23 19 10 16 14 13 14 18 23 22 19 18 17 18 17 21 20 21 21 18 20 15 7 8 8 5 9 7 7 7
14 15 24 22 11 11 5 7 10 12 17 18 18 17 18 17 17 17 16 18 16 14 10 7 8 6 8 7 6 6 7 6
17 17 17 21 20 15 11 9 10 11 9 14 14 12 12 13 12 13 13 10 11 10 9 9 9 8 8 7 7 7 7 5
10 10 12 13 14 11 12 10 11 10 12 12 13 12 10 10 12 11 12 13 11 10 10 8 8 7 7 7 6 7 6 6
15 10 14 13 8 9 10 11 13 13 13 12 10 9 10 12 11 11 11 9 10 9 8 7 6 5 7 6 6 5 7 7
15 14 18 17 13 12 13 14 17 14 9 9 10 12 12 13 11 10 10 10 12 10 8 7 5 5 5 4 3 3 5 6
19 16 11 12 11 12 12 15 12 10 9 10 12 13 14 12 10 10 12 10 9 7 5 4 3 3 3 3 3 2 3 4
19 12 8 9 11 11 11 11 11 9 9 11 14 14 15 13 12 12 12 10 7 7 5 2 3 1 1 3 2 2 2 1
16 10 9 10 8 9 10 8 7 8 10 10 12 14 15 14 13 15 12 9 6 6 4 3 2 2 3 3 3 4 4 4
15 11 9 8 8 9 8 7 7 5 8 11 14 14 16 15 13 13 11 6 7 7 5 3 2 0 4 4 3 5 6 6
15 14 12 11 9 9 7 8 6 7 10 12 13 15 15 14 14 12 12 7 7 6 4 2 1 1 4 5 4 2 5 7
18 15 15 14 12 9 6 7 7 7 7 7 11 14 15 13 15 13 12 9 7 6 4 3 3 3 4 3 4 4 8 1
18 16 14 13 14 10 13 9 8 7 7 6 10 13 14 15 15 13 12 9 7 6 6 3 4 4 2 4 5 7 5 6
15 15 14 15 15 14 11 10 7 6 5 6 9 12 15 15 14 13 11 9 6 5 5 6 4 4 4 4 5 6 7 7
15 17 16 16 15 16 15 14 12 10 9 8 10 9 11 16 16 14 11 10 9 6 5 5 5 4 4 4 5 6 6 7
17 18 18 17 17 16 13 14 15 15 13 10 13 10 10 12 15 12 11 12 10 9 5 8 5 5 5 5 5 5 5 6
19 19 18 18 17 17 16 16 11 11 12 11 11 10 10 14 14 13 13 10 8 8 9 8 7 5 6 6 5 5 6 6
Wind_Direction
154 164 150 131 123 126 133 131 131 130 124 118 112 110 108 103 101 99 98 93 92 102 110 106 99 103 102 97 81 44 53 53
94 83 92 116 128 111 110 117 126 124 119 119 118 118 115 112 112 101 108 101 102 101 103 100 98 96 94 93 104 137 48 36
99 94 85 122 130 112 107 106 116 124 119 121 130 131 128 138 109 111 102 103 99 96 102 108 107 96 87 81 11 41 33 25
122 112 98 82 31 96 111 132 144 139 128 134 134 138 138 127 119 107 106 101 95 100 110 116 153 118 109 78 51 42 40 26
118 124 123 127 136 96 82 143 143 133 137 143 137 136 137 134 131 127 128 118 121 124 120 98 86 81 71 56 56 43 21 16
124 126 138 132 149 154 167 176 146 137 145 141 146 146 148 148 142 142 144 137 127 127 112 102 94 83 80 75 56 36 19 13
75 124 142 146 154 153 162 153 147 149 164 157 159 154 146 140 139 142 140 148 138 126 122 120 102 88 74 64 54 45 29 15
128 118 113 132 171 178 164 158 156 174 171 159 159 153 141 138 147 138 141 139 124 127 125 114 97 95 74 57 50 32 45 27
152 176 182 170 171 171 165 168 179 178 159 149 139 139 146 148 147 143 135 119 121 121 116 116 109 90 79 71 77 56 56 32
173 180 183 171 159 167 181 176 176 169 171 161 155 153 153 154 149 141 140 138 131 121 118 108 99 95 61 41 38 41 47 29
176 194 190 170 165 172 182 172 176 169 169 174 171 170 166 158 154 143 153 141 138 132 121 146 133 94 41 9 333 246 228 330
190 204 202 172 163 167 173 168 165 164 177 181 173 175 170 165 155 155 155 145 144 137 137 109 52 12 307 290 303 261 249 259
201 205 197 174 179 183 172 175 174 170 182 179 175 173 176 170 157 158 158 159 146 146 142 151 149 318 288 288 234 230 248 264
205 208 197 196 192 188 187 174 185 191 180 175 184 176 176 172 164 166 169 149 151 155 174 169 262 278 318 295 304 264 204 236
210 211 204 206 198 188 184 164 167 181 185 169 185 177 178 177 176 171 165 163 164 165 175 228 276 202 273 307 304 307 327 310
215 220 215 205 201 188 193 194 192 190 177 173 180 181 183 184 180 171 169 170 167 171 187 223 250 276 227 236 277 299 298 298
214 212 208 197 196 203 199 206 194 174 131 164 196 189 190 188 183 177 175 179 158 146 188 209 217 279 277 287 263 270 262 280
204 205 204 197 200 201 200 197 182 178 168 182 200 197 190 192 188 184 171 157 151 172 200 229 233 247 269 269 273 284 292 293
199 201 204 201 201 200 203 199 187 190 182 191 203 198 194 189 187 179 168 151 149 142 200 236 234 248 244 265 259 268 277 283
196 197 202 199 200 201 202 203 201 198 190 199 208 205 200 182 184 178 152 118 140 192 214 227 226 239 247 248 264 255 260 271